SCP
0 0 0 0 0 0 0 0 0 0 0 0 0 0 0 0 0 0 0 0 0 0 0 0 0 0 1 1 0 0 0 0 0 0 0 0 0 0 0 0 0 0 0
0 0 0 0 0 0 0 0 0 0 0 0 0 0 0 0 0 0 0 0 0 0 0 0 0 1 1 1 0 0 0 0 0 0 0 0 0 0 0 0 0 0 0
0 0 0 0 0 0 0 0 0 0 0 0 0 0 0 0 0 0 0 0 0 0 0 0 0 1 1 0 0 0 0 0 0 0 0 0 0 0 0 0 0 0 0
0 0 0 0 0 0 0 0 0 0 0 0 0 0 0 0 0 0 0 0 0 0 0 0 0 0 0 0 0 0 0 0 0 0 0 0 0 0 0 0 0 0 0
0 0 0 0 0 0 0 0 0 0 0 0 0 0 0 0 0 0 0 0 0 0 0 0 0 0 0 0 0 0 0 0 0 0 0 0 0 0 0 0 0 0 0
0 0 0 0 0 0 0 0 0 0 0 0 0 0 0 0 0 0 0 0 0 0 0 0 0 0 0 0 0 0 0 0 0 0 0 0 0 0 0 0 0 0 0
0 0 0 0 0 0 0 0 0 0 0 0 0 0 0 0 0 0 0 0 0 0 0 0 0 0 0 0 0 0 0 0 0 0 0 0 0 0 0 0 0 0 0
0 0 0 0 0 0 0 0 0 0 0 0 0 0 0 0 0 0 0 0 0 0 0 0 0 0 0 0 0 0 0 0 0 0 0 0 0 0 0 0 0 0 0
0 0 0 0 0 0 0 0 0 0 0 0 0 0 0 0 0 0 0 0 0 0 0 0 0 0 0 0 0 0 0 0 0 0 0 0 0 0 0 0 0 0 0
0 0 0 0 0 0 0 0 0 0 0 0 0 0 0 0 0 0 0 0 0 0 0 0 0 0 0 0 0 0 0 0 0 0 0 0 0 0 0 0 0 0 0
0 0 0 0 0 0 0 0 0 0 0 0 0 0 0 0 0 0 0 0 0 0 0 0 0 0 0 0 0 0 0 0 0 0 0 0 0 0 0 0 0 0 0
0 0 0 0 0 0 0 0 0 0 0 0 0 0 0 0 0 0 0 0 0 0 0 0 0 0 0 0 0 0 0 0 0 0 0 0 0 0 0 0 0 0 0
0 0 0 0 0 0 0 0 0 0 0 0 0 0 0 0 0 0 0 0 0 0 0 0 0 0 0 0 0 0 0 0 0 0 0 0 0 0 0 0 0 0 0
0 0 0 0 0 0 0 0 0 0 0 0 0 0 0 0 0 0 0 0 0 0 0 0 0 0 0 0 0 0 0 0 0 0 0 0 0 0 0 0 0 0 0
0 0 0 0 0 0 0 0 0 0 0 0 0 0 0 0 0 0 0 0 0 0 0 0 0 0 0 0 0 0 0 0 0 0 0 0 0 0 0 0 0 0 0
1 1 0 0 0 0 0 0 0 0 0 0 0 0 0 0 0 0 0 0 0 0 0 0 0 0 0 0 0 0 0 0 0 0 0 0 0 0 0 0 0 0 0
1 1 1 0 0 0 0 0 0 0 0 0 0 0 0 0 0 0 0 0 0 0 0 0 0 0 0 0 0 0 0 0 0 0 0 0 0 0 0 0 0 0 0
1 1 1 1 0 0 0 0 0 0 0 0 0 0 0 0 0 0 0 0 0 0 0 0 0 0 0 0 0 0 0 0 0 0 0 0 0 0 0 0 0 0 0
1 1 1 1 0 0 0 0 0 0 0 0 0 0 0 0 0 0 0 0 0 0 0 0 0 0 0 0 0 -0 0 0 0 0 0 0 0 0 0 0 0 0 0
0 1 1 0 0 0 0 0 0 0 0 0 0 0 0 0 0 0 0 0 0 0 0 0 0 0 0 0 0 0 0 0 0 0 0 0 0 0 0 0 0 0 0
0 0 0 0 0 0 0 0 0 0 0 0 0 0 0 0 0 0 0 0 0 0 0 0 0 0 0 0 0 0 0 0 0 0 0 0 0 0 0 0 0 0 0
0 0 0 0 0 0 0 0 0 0 0 0 0 0 0 0 0 0 0 0 0 0 0 0 0 0 0 0 0 0 0 0 0 0 0 0 0 0 0 0 0 0 0
0 0 0 0 0 0 0 0 0 0 0 0 0 0 0 0 0 0 0 0 0 0 0 0 0 0 0 0 0 0 0 0 0 0 0 0 0 0 0 0 0 0 0
0 0 0 0 0 0 0 0 0 0 0 0 0 0 0 0 0 0 0 0 0 0 0 0 0 0 0 0 0 0 0 0 0 0 0 0 0 0 0 0 0 0 0
0 0 0 0 0 0 0 0 0 0 0 0 0 0 0 0 0 0 0 0 0 0 0 0 0 0 0 0 0 0 0 0 0 0 0 0 0 0 0 0 0 0 0
0 0 0 0 0 0 0 0 0 0 0 0 0 0 0 0 0 0 0 0 0 0 0 0 0 0 0 0 0 0 0 0 0 0 0 0 0 0 0 0 0 0 0
Wind_Speed
3 5 10 10 9 8 8 8 10 11 12 13 12 11 12 13 12 13 14 14 13 12 7 6 9 11 11 12 11 11 11 11 11 9 8 6 6 7 7 5 6 3 6
6 6 11 11 10 9 9 9 9 10 12 13 12 11 11 11 11 12 13 14 14 13 8 6 8 11 12 12 11 12 11 10 10 8 7 5 5 6 5 5 7 4 5
7 6 8 11 10 9 10 10 10 10 11 12 12 11 10 11 11 12 12 13 13 12 10 9 9 11 11 10 12 12 12 11 9 8 7 3 2 5 5 5 8 7 5
6 5 5 10 10 9 10 10 11 11 12 12 12 11 10 10 11 11 12 12 12 11 10 9 9 11 10 11 13 12 12 12 11 9 5 3 2 4 5 6 7 7 6
5 4 5 9 10 9 10 11 12 12 12 12 12 10 10 10 10 10 11 11 11 10 9 9 10 10 9 11 12 13 12 12 11 7 4 3 3 3 6 6 6 7 5
5 4 5 9 9 9 10 11 12 12 12 12 11 10 9 9 10 10 10 10 10 10 9 9 9 9 8 8 10 12 12 12 9 5 5 4 3 6 6 6 6 6 7
4 3 3 8 8 9 9 11 12 11 10 12 12 10 9 9 9 10 8 9 9 10 9 8 8 8 6 9 12 12 11 10 6 4 4 3 4 8 7 5 5 5 6
4 3 3 7 8 9 10 11 11 11 12 12 11 9 9 9 8 8 8 8 8 9 9 9 9 8 11 13 12 10 10 9 6 4 3 3 6 9 7 5 5 6 5
4 4 3 3 5 9 11 11 11 11 10 10 10 9 9 9 10 9 8 8 8 9 11 11 9 9 11 11 10 9 9 9 4 3 3 1 4 7 8 7 7 7 5
3 3 3 2 2 3 4 9 10 10 11 11 11 10 9 8 9 8 8 7 8 11 12 11 11 11 12 11 10 9 8 6 3 2 2 1 4 5 5 6 7 6 5
2 3 3 2 3 3 3 5 7 9 11 10 8 9 7 3 3 5 5 8 8 10 12 13 13 12 12 10 10 9 6 3 3 2 2 1 4 5 5 6 6 6 5
5 4 3 3 3 3 1 2 3 3 5 5 4 4 3 3 2 4 5 8 8 10 11 12 12 10 7 4 5 6 3 3 3 2 2 3 3 5 5 5 5 5 5
5 5 6 5 4 4 2 2 2 2 3 4 4 4 3 3 2 2 1 3 4 6 5 5 6 4 4 3 3 3 3 3 3 2 3 6 5 6 6 5 5 5 5
8 6 6 6 5 5 5 5 4 4 4 4 4 5 4 3 2 2 2 2 2 3 3 3 3 4 5 5 4 4 5 4 4 3 4 8 8 8 7 6 5 5 6
8 7 6 7 7 7 4 3 3 4 4 5 5 5 5 4 4 3 3 2 2 3 3 3 3 5 5 5 4 4 5 6 6 5 5 13 13 11 10 8 7 7 8
7 7 7 7 6 4 4 4 3 3 4 4 4 6 6 4 4 4 4 3 2 3 3 3 4 5 4 4 4 4 6 6 6 7 6 10 17 17 16 13 11 11 10
9 9 8 7 4 4 3 5 4 4 4 4 4 5 6 5 5 4 4 4 3 4 4 4 4 4 4 4 4 3 5 6 6 7 6 6 8 14 18 17 16 14 12
9 10 9 6 6 5 4 4 3 4 4 4 4 5 6 6 6 4 4 4 4 3 4 4 3 3 3 4 3 2 3 4 5 5 6 6 5 6 10 15 18 18 17
11 11 10 7 5 5 5 5 4 4 4 3 4 5 7 7 6 5 5 4 5 3 3 3 2 2 3 4 4 3 1 2 4 4 5 5 6 5 5 10 15 17 17
5 6 8 6 5 5 4 3 4 3 2 3 3 4 6 5 6 5 4 5 6 4 3 3 3 2 2 4 4 4 2 2 3 3 3 4 4 5 4 5 6 8 14
5 6 6 5 5 5 3 2 2 2 1 2 2 2 2 4 5 5 4 5 6 6 6 6 3 3 2 3 4 3 3 3 4 3 2 3 4 4 4 4 3 3 5
5 7 6 5 4 3 2 2 2 2 2 1 2 2 3 5 6 6 6 6 7 5 6 6 5 4 2 3 4 3 1 1 3 3 3 3 3 3 4 4 4 4 4
5 5 4 4 3 4 4 3 2 2 2 1 2 2 2 5 6 5 5 6 7 7 7 9 8 7 5 2 2 4 4 3 1 2 2 2 2 3 3 3 4 5 5
5 5 4 4 4 3 4 4 4 3 3 3 2 3 4 6 5 4 3 5 7 6 7 9 7 4 7 5 2 1 3 4 4 2 1 2 2 2 2 2 3 4 4
3 3 4 4 4 4 4 5 5 4 4 3 3 4 5 4 5 4 1 3 5 6 7 9 7 5 4 5 4 3 3 2 3 4 2 1 1 0 1 2 2 2 3
3 3 3 4 4 4 5 5 5 5 5 4 4 5 5 5 6 8 6 4 2 1 1 5 7 6 4 4 4 4 4 4 4 4 3 3 3 2 1 1 0 1 1
Wind_Direction
181 175 170 167 160 152 145 143 141 140 133 127 125 121 114 110 110 110 118 117 107 88 64 85 96 89 84 92 97 100 108 112 110 119 117 110 117 122 115 100 106 77 90
144 165 171 170 160 158 152 149 149 144 140 137 134 129 124 119 118 119 123 128 126 124 141 123 100 91 81 84 94 102 106 115 112 117 112 104 116 131 139 130 120 124 104
135 159 170 165 156 162 155 153 156 149 144 142 135 130 129 132 133 129 127 123 118 114 112 106 96 86 81 82 87 90 101 112 111 106 92 80 104 132 144 153 125 118 111
139 144 150 157 160 159 153 157 158 153 146 139 133 134 138 143 140 138 131 128 118 112 107 104 98 86 78 93 93 86 87 88 90 88 84 83 100 126 134 142 135 126 119
131 130 156 160 156 155 154 156 156 154 147 139 138 140 146 146 141 137 135 130 120 110 99 93 93 90 88 98 94 87 83 76 71 68 69 82 86 116 132 147 145 127 117
123 126 160 156 153 154 152 154 154 154 148 142 140 142 141 133 133 137 137 127 117 106 95 92 98 102 98 104 105 92 85 80 68 48 45 63 81 98 110 136 148 139 134
126 127 146 148 152 148 150 155 155 153 146 144 138 142 136 131 130 136 137 120 112 105 100 97 103 99 92 109 108 97 90 81 68 50 42 42 76 92 99 116 124 106 116
126 124 131 151 155 150 150 155 156 155 154 148 136 139 135 131 126 133 131 113 98 94 95 99 100 84 93 105 107 100 93 84 64 47 40 33 64 74 83 104 110 100 105
118 114 113 132 160 156 154 155 156 157 154 143 139 134 128 131 128 128 123 102 94 96 100 100 90 84 94 96 89 81 78 76 64 32 17 1 77 71 68 70 79 83 80
111 118 129 135 117 114 143 155 158 158 155 153 146 135 133 132 126 129 123 106 101 102 99 93 82 92 94 86 77 73 69 60 54 37 344 276 106 84 70 67 72 73 83
137 140 151 141 121 128 138 161 161 163 161 158 147 142 125 98 109 121 128 121 111 107 100 87 75 91 89 78 73 68 57 29 29 15 345 20 108 104 83 72 70 73 80
184 168 170 165 155 148 136 126 145 160 145 138 133 118 105 104 124 135 143 132 121 108 93 80 75 88 80 57 49 48 31 24 24 7 6 51 95 108 95 79 77 77 86
181 175 170 179 165 162 157 152 155 130 119 125 136 131 136 122 130 109 93 94 88 82 71 68 72 86 89 72 53 38 25 25 18 0 27 55 59 70 77 78 78 83 90
179 177 163 172 165 183 184 180 172 154 151 154 155 153 144 138 148 148 140 118 98 85 71 54 72 103 90 76 69 58 40 30 18 1 27 58 60 60 65 69 74 74 76
181 170 173 173 182 188 183 165 164 157 161 161 156 160 153 156 161 162 159 137 113 99 88 75 99 108 102 91 78 73 61 46 28 18 23 53 57 58 60 64 71 76 76
182 169 169 192 185 171 155 156 164 160 163 162 168 162 162 168 165 167 167 148 135 109 98 105 122 124 119 110 91 76 72 61 45 34 28 38 47 51 52 53 59 67 71
182 168 175 189 162 156 157 157 156 162 167 171 174 167 164 177 176 171 177 154 154 133 119 107 104 109 114 116 101 85 78 65 54 46 40 33 30 38 43 46 50 56 64
176 171 171 182 153 151 150 145 140 151 158 176 174 169 168 187 185 169 179 160 147 141 135 126 125 119 126 129 122 109 96 83 69 54 51 44 32 25 28 38 41 44 51
186 177 168 162 144 147 137 139 141 149 156 174 178 179 174 188 186 172 186 162 156 160 156 144 120 118 137 140 133 115 107 106 89 71 66 58 47 37 19 23 33 36 39
172 163 154 146 134 111 99 104 98 127 157 163 187 196 168 177 187 178 194 160 163 170 169 162 127 98 125 136 109 85 66 77 89 89 88 80 66 54 46 34 24 30 40
142 132 144 160 141 116 103 101 113 162 176 189 200 228 162 174 189 187 194 162 168 177 178 158 122 111 114 138 107 82 54 63 67 54 69 87 77 65 57 45 33 26 35
168 157 153 155 149 137 124 118 112 118 140 187 122 154 205 201 196 199 182 173 170 160 151 152 143 123 152 184 128 128 107 32 40 39 54 62 66 56 52 42 35 30 26
199 192 179 168 160 156 134 107 82 89 100 125 153 143 230 235 209 205 193 179 168 167 172 171 160 155 155 187 165 140 158 188 152 28 37 56 52 43 40 40 39 35 29
193 182 182 196 198 175 151 159 172 161 168 174 142 135 179 215 209 206 215 200 187 179 178 177 164 158 145 160 155 114 125 147 145 149 357 9 49 51 28 31 38 37 35
203 180 182 204 215 193 183 189 178 159 151 150 148 143 142 143 130 107 78 197 206 196 183 170 164 159 144 157 161 152 124 99 118 133 173 242 297 309 20 35 28 29 37
226 204 183 189 201 194 199 204 187 175 161 159 161 157 153 138 120 102 78 73 55 360 204 169 160 159 145 151 163 160 158 161 169 148 151 185 203 223 205 159 243 337 15